Погода Октябрьское

Погода Октябрьское : погода сейчас, прогноз погоды и архив. Всё, что Вы хотите узнать о погоде Октябрьское!

Поиск расширенной информации на нашем сайте:

Другие новости

Новости СМИ2

Главная страница сайта

Новости сайта

02.10.2013

Напоминаем, что на нашем новом сайте вы можете получить высокодетализированные прогнозы погоды по пунктам России, СНГ и мира (включающие важные для авиации метеовеличины, такие как направление и скорость ветра, видимость, явления погоды, количество и форма облачности, нижняя и верхняя граница облачности), а также ознакомиться с разнообразными материалами по авиационной метеорологии и подборкой полезных ссылок на эту тему.

Сайт Метеоцентр.Азия посвящён разработке технологий оптимизации авиаметеорологического обслуживания, включая проектирование и перспективное создание нескольких автоматизированных авиаметеорологических систем:
- система выпуска высокодетальных прогностических карт явлений погоды для нижнего воздушного пространства по России и ближнему зарубежью;
- система верификации прогнозов TAF (выпускаемых синоптиками официальных АМСГ РФ и ближнего зарубежья) и AUTOTAF (выпускаемых сайтом Метеоцентр.Азия) - выявление ошибок, онлайн-сопоставление с фактической погодой METAR, автоматическое внесение коррективов в прогнозы при резком отклонении фактической погоды от прогноза, подсчёт оправдываемости прогнозов по элементам и в целом;
- система обработки, анализа и отображения авиаметеорологической информации для применения провайдерами метеорологической информации.


Погода Октябрьское - сегодня

Время (UTC), дата Ветер
(°,м/с) 
Видим.   Явления Облачность Т
(°С)
Тd
(°С)
f(%) Тe
(°С)
Pmin
(гПа)
dP
(гПа)
Po
(мм)
O2
(г/м3)
Тmin Tmax R s Состояние
почвы
12 21.04.17 120 (ЮВ) 1{13}  10 км  {снег}  10/10 1000 м 
[Sc]
+2.1 -1 80 +3  1000.2  -2  743  297           
15 21.04.17 180 (Ю) 4000 м  слаб. ливневой дождь со снегом  9/9 300 м кучево-дожд. 
[Cb cap]
+1.2 -0.5 88 +2  999.2  -1  743  298    +2.1     
18 21.04.17 220 (ЮЗ) 20000 м  {ливн. осадки}  8/8 1000 м 
[Sc]
-0.2 -0.8 96 -1  999.5  0.3  743  300           
21 21.04.17 тихо ()   10 км  в посл. час туман [диам. гололёда 1 мм]  6/6 1000 м 
[St]
-1.4 -1.7 98 -1  1000  0.4  743  301           
00 22.04.17 200 (Ю) 20000 м  {туман} [диам. гололёда 1 мм]  ясно 
-3.5 -4.9 90 -5  1000.6  0.5  744  304           
03 22.04.17 230 (ЮЗ) 20000 м  [диам. гололёда 1 мм]  8/8 600 м кучево-дожд. 
[Cb calv]
-1.4 -5.4 74 -1  1001.4  0.8  744  302  -4.2    0.5  21  равномерный
мокрый или
старый снег
100% 
06 22.04.17 270 (З) 4000 м  слаб. ливневой снег  10/6 600 м кучево-дожд., средняя 
[Cb cap|As op]
-0.8 -4.3 77 -3  1003.5  2.1  746  302           
09 22.04.17 260 (З) 20000 м  {ливн. осадки}  3/3 600 м 
[Cu hum]
+2.1 -6 55 +1  1004.8  1.4  747  299           
12 22.04.17 220 (ЮЗ) 20000 м  {ливн. осадки}  10/1 1000 м верхняя 
[Cu hum|Ci fib]
+4.9 -8.5 37 +5  1005.6  0.9  748  297           
15 22.04.17 130 (ЮВ) 20000 м    10/8 600 м верхняя 
[Sc|Ci fib]
+3.1 -7.4 46 +4  1006.4  0.8  748  299    +5.2  0.0     
18 22.04.17 130 (ЮВ) 20000 м    10/0 верхняя 
[Ci fib]
+0.4 -7 58 +1  1007.5  749  302           
21 22.04.17 100 (В) 20000 м    10/10 1500 м 
[Sc]
-0.1 -6.5 62 +1  1007.8  0.2  749  303           
00 23.04.17 100 (В) 20000 м    10/0 средняя, верхняя 
[Ac trans|Ci fib]
-1.9 -6.1 73 -1  1008.1  0.3  749  305           
03 23.04.17 140 (ЮВ) 20000 м    10/0 верхняя 
[Ci fib]
+0.6 -6.7 58 1009.1  750  302  -2.6      20  равномерный
мокрый или
старый снег
100% 
06 23.04.17 080 (В) 20000 м    10/0 средняя 
[As op]
+3.2 -4.7 56 +3  1008.7  -0.2  750  299           
09 23.04.17 060 (СВ) 20000 м    10/3 1000 м средняя 
[Sc|As trans]
+4.9 -4.6 50 +4  1008.2  -0.4  749  297           
12 23.04.17 120 (ЮВ) 20000 м  {дождь}  10/8 1000 м средняя 
[Sc|As op]
+5.1 -1.8 61 +5  1007.4  -0.8  749  296           
15 23.04.17 130 (ЮВ) 20000 м    10/6 1000 м средняя 
[Sc|As op]
+5.8 -4 49 +4  1006.4  -0.9  748  296    +6.5  0.0     
18 23.04.17 070 (В) 20000 м    10/8 1000 м средняя 
[Sc|As op]
+5 -3.7 53 +4  1005.8  -0.6  748  296           
21 23.04.17 070 (В) 4000 м  слаб. дождь  10/0 средняя 
[As op]
+2.9 -1.9 71 +2  1005.2  -0.7  747  298           
00 24.04.17 070 (В) 4000 м  слаб. дождь  10/0 средняя 
[As op]
+1.9 +0.6 91 +1  1005.1  -0.1  747  299           
03 24.04.17 160 (Ю) 20000 м  в посл. час дождь  10/10 600 м 
[Ns]
+1.7 +0.9 94 +2  1006  0.9  748  299  +1.7    16  равномерный
мокрый или
старый снег
100% 
06 24.04.17 200 (Ю) 20000 м  {дождь}  8/8 600 м 
[Cu med, cong]
+7 +1.3 67 +7  1006.8  0.9  748  294           
09 24.04.17 290 (З) 20000 м    8/8 600 м 
[Cu hum]
+7.8 -4.4 42 +7  1008.6  1.8  750  294           
12 24.04.17 200 (Ю) 20000 м    8/8 50 м 
[Cu hum]
+9 -5.4 36 +9  1009.7  1.2  751  293           
Время (UTC), дата Ветер
(°,м/с) 
Видим.   Явления Облачность Т
(°С)
Тd
(°С)
f(%) Тe
(°С)
Pmin
(гПа)
dP
(гПа)
Po
(мм)
O2
(г/м3)
Тmin Tmax R s Состояние
почвы

Для получения пояснительной информации подведите курсор к названию столбца.

ПОГОДА Октябрьское - архив

Всё, что Вы хотите узнать о погоде Октябрьское - удобно и подробно!

Выберите нужную дату (начиная с 1 января 2015* года) и нажмите кнопку "Найти".
Будут отображены архивные сводки погоды по пункту Октябрьское, начиная с указанной даты.


Отображать данные в формате CSV (для использования в таблицах Excel)


Внимание! Наш архив погоды предназначен исключительно для личного некоммерческого использования в познавательных целях. Если Вам необходимы официальные справки о состоянии погоды (для производственных, юридических, коммерческих и т.п. целей), обращайтесь в органы Росгидромета.

*Примечание: данная дата относится к архиву по метеостанциям СССР (Россия, СНГ, Балтия).
Архив по метеостанциям Зарубежной Европы и Азии (кроме Китая) хранится 10 дней, по другим регионам земного шара (Китай, Африка, Америка, Австралия, Океания) - 1 день.

Октябрьское - район местоположения метеостанции


Название, широта, долгота, высота метеостанции:
Октябрьское 62.4°ш. 66.1°д. 72 м над ур. моря [Российская Федерация]

Дополнительная информация

В oтличие oт бoльшинства пoгoдных сайтoв мы публикуем пoдрoбную метеoинфoрмацию в детальнoм прoфессиoнальнoм фoрмате.

Характеристики температуры и влажнoсти вoздуха измеряются на высoте 2 м в тени вдали oт зданий и деревьев.
Скoрoсть ветра измеряется на высoте 10 м (на урoвне рoста челoвека скoрoсть ветра ниже в 1.5-2 раза). Если метеoстанция нахoдится в гoрoде или в лесу, тo скoрoсть ветра занижена на 2-4 м/с пo сравнению с oткрытым местoм. Скoрoсть ветра над акватoриями крупных рек и oзёр, а также на вершинах хoлмoв на 2-5 м/с выше, чем в oбычных услoвиях.
Атмoсфернoе давление в разных тoчках местнoсти мoжет значительнo oтличаться oт давления на метеoстанции, в зависимoсти oт услoвий рельефа (при пoдъёме на 10 м давление пoнижается примернo на 1 мм рт.ст.).